Powrót do katalogu

ARIANE 2 DEB

AktywnyGTO
NORAD 33556·DEBRIS·🇫🇷 France

Wystrzelony Jan 27, 1989 z Guiana Space Centre

Loading…

TLE

NieaktualneSource: Space-Track

Epoka: Sep 12, 2026, 23:30 UTC

1 33556U 89006AY  26255.97967218  .00000038  00000-0  92937-3 0  9998
2 33556   9.4068  97.9607 7117003   2.8211 359.7898  2.31818052104455

Śledź ARIANE 2 DEB w czasie rzeczywistym z AllMySat

Download on the App Store